Regional Weather Roundup
Issued by NWS Cleveland, OH

Home | Current Version | Previous Version | Text Only | Print | Product List | Glossary Off
Versions: 1 2 3 4 5 6 7 8 9 10 11 12 13 14 15 16 17 18 19 20 21 22 23 24 25 26 27 28 29 30 31 32 33 34 35 36 37 38 39 40 41 42 43 44 45 46 47 48 49 50

000
ASUS41 KCLE 290910
RWRCLE
OHIO REGIONAL WEATHER ROUNDUP
NATIONAL WEATHER SERVICE CLEVELAND, OH
500 AM EDT FRI MAY 29 2015

NOTE: "FAIR" INDICATES FEW OR NO CLOUDS BELOW 12,000 FEET WITH NO
SIGNIFICANT WEATHER AND/OR OBSTRUCTIONS TO VISIBILITY.

OHZ001>008-015>018-024>027-034-035-043-044-291000-
   NORTHWEST OHIO

CITY           SKY/WX    TMP DP  RH WIND       PRES   REMARKS
DEFIANCE       CLEAR     62  58  86 CALM      30.14S
FINDLAY        PTCLDY    66  60  81 SE6       30.15S
TOLEDO EXPRESS MOCLDY    62  57  83 SE3       30.15S
TOLEDO EXEC    PTCLDY    62  56  80 CALM      30.16S
LIMA           PTCLDY    65  61  87 E3        30.15S
$$

OHZ009>014-019>023-028>033-038-089-291000-
   NORTHEAST OHIO

CITY           SKY/WX    TMP DP  RH WIND       PRES   REMARKS
CLE-HOPKINS    PTCLDY    63  55  75 S6        30.20S
CLE-LAKEFRONT  PTCLDY    66  55  67 SE5       30.17S
CUY CO. ARPT   NOT AVBL
LORAIN-ELYRIA  PTCLDY    61  56  83 S3        30.19S
ASHTABULA      CLEAR     58  53  84 SE6       30.22S
AKRON-CANTON   PTCLDY    64  53  67 E6        30.21R
WOOSTER        CLEAR     60  57  89 CALM      30.20S
MANSFIELD      CLEAR     64  57  78 SE3       30.19S
YOUNGSTOWN     MOCLDY    59  53  80 E6        30.22R
$$

OHZ042-051>053-060>062-070>072-077>081-291000-
  SOUTHWEST OHIO

CITY           SKY/WX    TMP DP  RH WIND       PRES   REMARKS
CINC-COVINGTON CLOUDY    68  66  93 CALM      30.14R
CINC-LUNKEN    CLOUDY    67  67 100 CALM      30.14R
HAMILTON       RAIN      68  67  96 W3        30.15S FOG
DAYTON         LGT RAIN  70  65  84 SE5       30.16R
WRIGHT-PAT AFB MOCLDY    69  64  86 CALM      30.14S
DAYTON GENERAL LGT RAIN  69  65  86 SW7       30.14S FOG
WILMINGTON     CLOUDY    67  63  87 CALM      30.15S
$$

OHZ036-037-039>041-045>050-054>059-063>069-073>076-082>088-291000-
  CENTRAL AND SOUTHEAST OHIO

CITY           SKY/WX    TMP DP  RH WIND       PRES   REMARKS
COLUMBUS       PTCLDY    68  62  81 E6        30.15F
OSU AIRPORT    PTCLDY    66  61  84 E5        30.15F
BOLTON FIELD   NOT AVBL
RICKENBACK AFB CLEAR     64  62  92 CALM      30.15S
NEWARK         PTCLDY    64  60  87 CALM      30.17S
MARION         MOCLDY    65  59  81 SE6       30.17S
LANCASTER      PTCLDY    62  61  96 CALM      30.16S FOG
ZANESVILLE     NOT AVBL
NEW PHILLY     PTCLDY    61  57  87 CALM      30.20R FOG
$$



USA.gov is the U.S. government's official web portal to all federal, state and local government web resources and services.